This is the latest recevied weather packets stored in our database for station/object W8BS. If no packets are shown the sender has not sent any weather packets the latest 1 day(s).
| Time | Temp. | Humidity | Pressure | Rain* | Wind** | Luminosity | Snow |
|---|---|---|---|---|---|---|---|
| 1778026483 | 18.33° C | 59% | 1010 hPa | 0 mm | 0.45 m/s, 193° | 2 W/m² | - |
| 1778026181 | 18.33° C | 60% | 1009.9 hPa | 0 mm | 0 m/s | 1 W/m² | - |
| 1778025878 | 18.33° C | 57% | 1009.9 hPa | 0 mm | 0.45 m/s, 193° | 3 W/m² | - |
| 1778025575 | 18.89° C | 56% | 1009.9 hPa | 0 mm | 0 m/s | 6 W/m² | - |
| 1778025273 | 18.89° C | 56% | 1009.8 hPa | 0 mm | 0 m/s | 7 W/m² | - |
| 1778024970 | 18.89° C | 56% | 1010 hPa | 0 mm | 0 m/s | 12 W/m² | - |
| 1778024667 | 18.89° C | 54% | 1010 hPa | 0 mm | 0.45 m/s, 193° | 16 W/m² | - |
| 1778024364 | 18.89° C | 54% | 1010.1 hPa | 0 mm | 0.45 m/s, 193° | 19 W/m² | - |
| 1778024062 | 18.89° C | 54% | 1010 hPa | 0 mm | 0.45 m/s, 193° | 23 W/m² | - |
| 1778023759 | 19.44° C | 54% | 1009.7 hPa | 0 mm | 0.45 m/s, 192° | 25 W/m² | - |
| 1778023457 | 19.44° C | 53% | 1009.9 hPa | 0 mm | 0.45 m/s, 192° | 26 W/m² | - |
| 1778023153 | 19.44° C | 52% | 1010 hPa | 0 mm | 0.45 m/s, 196° | 26 W/m² | - |
| 1778022851 | 20° C | 52% | 1009.8 hPa | 0 mm | 0.45 m/s, 190° | 26 W/m² | - |
| 1778022549 | 20° C | 51% | 1009.7 hPa | 0 mm | 0.45 m/s, 192° | 29 W/m² | - |
| 1778022246 | 20° C | 50% | 1009.7 hPa | 0 mm | 0.89 m/s, 201° | 31 W/m² | - |
| 1778021942 | 20.56° C | 49% | 1009.6 hPa | 0 mm | 0 m/s | 33 W/m² | - |
| 1778021640 | 20.56° C | 49% | 1009.6 hPa | 0 mm | 1.34 m/s, 209° | 41 W/m² | - |
| 1778021335 | 20.56° C | 49% | 1009.5 hPa | 0 mm | 0.45 m/s, 254° | 49 W/m² | - |
| 1778021033 | 20.56° C | 49% | 1009.6 hPa | 0 mm | 0.45 m/s, 188° | 52 W/m² | - |
| 1778020729 | 20.56° C | 49% | 1009.7 hPa | 0 mm | 0.45 m/s, 191° | 54 W/m² | - |
| 1778020426 | 20.56° C | 48% | 1009.9 hPa | 0 mm | 0.45 m/s, 195° | 75 W/m² | - |
| 1778020122 | 20.56° C | 49% | 1009.7 hPa | 0 mm | 0.89 m/s, 193° | 98 W/m² | - |
| 1778019818 | 21.11° C | 48% | 1010 hPa | 0 mm | 0.45 m/s, 191° | 96 W/m² | - |
| 1778019516 | 21.11° C | 47% | 1010 hPa | 0 mm | 0.89 m/s, 191° | 110 W/m² | - |
| 1778019212 | 21.11° C | 47% | 1010.1 hPa | 0 mm | 1.34 m/s, 223° | 107 W/m² | - |
* Rain latest hour (hover to see other rain measurements)
** Current wind speed in m/s (hover to see current wind gust speed)